星链-30918 (STARLINK-30918 )

导读 | 豆包AI

STARLINK-30918是美国太空探索技术公司(SpaceX)于2023年11月18日发射的星链(Starlink)卫星,属于星链第二代星座(Gen2)部署阶段的卫星。星链星座旨在为全球提供高速低延迟宽带互联网服务,尤其覆盖传统基础设施匮乏的偏远地区,可支持视频通话、在线 gaming 等应用,目前星链已扩展至航空、海事、应急通信等领域。

基本信息
目录编号:
58365
目录名称:
STARLINK-30918
国际标识:
2023-177Q
轨道中心:
EARTH
卫星名称:
星链-30918
卫星全名:
星链-30918 (STARLINK-30918 )
卫星状态:
在轨 (已飞行894 天)
发射日期:
2023-11-18 UTC
国别 :
美国 (US)
星等 :
--
轨道信息
数据来源 国际轨道数据 AOE轨道数据
星历时间 2026-04-30T12:47:07+0800
15小时前
查看轨道信息
2026-04-29T20:00:00+0800
1天前
查看轨道信息
半长轴 6861.22km 6861.214km
偏心率 0.0001106 0.0001398
轨道倾角 43.002° 43.003°
近地点辐角 255.729° 241.251°
升交点赤经 59.836° 63.784°
平近点角 104.344° 228.241°
近地点 482.324km 482.117km
远地点 483.842km 484.037km
周期 94.267分钟 94.267分钟
每日圈数 15.275689 15.275707
详细信息
固有亮度:
5
最大亮度:
0.3
卫星平台:
Starlink v2.0 mini
覆盖范围:
全球
运营商:
太空探索技术公司
运营商所在国:
美国
制造商(研发单位):
太空探索技术公司
制造商所在国:
美国
使用方式:
暂无
卫星简介
星链(Starlink)计划是由太空探索技术公司(SpaceX)提出的一个巨型低轨卫星互联网星座项目,计划在2019年至2024年间在太空搭建由约1.2万颗卫星组成的“星链”网络,其中1584颗将部署在地球上空550千米处的近地轨道,并从2020年开始工作。该卫星仍在工作。
2D轨道图
3D轨道图
轨道高度分析图
轨道倾角分析图
轨道综合分析图
查看轨道综合分析图